AirNav   SIMCOM
 
 1443 users online  

SN22 Hoelting Airport
Basehor, Kansas, USA

GOING TO BASEHOR?


FAA INFORMATION EFFECTIVE 07 DECEMBER 2017

Location

FAA Identifier: SN22
Lat/Long: 39-06-43.9832N / 094-57-22.1483W
39-06.733053N / 094-57.369138W
39.1122176 / -94.9561523
(estimated)
Elevation: 960 ft. / 293 m (estimated)
Variation: 05E (1985)
From city: 2 miles SW of BASEHOR, KS
Time zone: UTC -6 (UTC -5 during Daylight Saving Time)
Zip code: 66012

Airport Operations

Airport use: Private use. Permission required prior to landing
Activation date: 03/1960
Control tower: no
ARTCC: KANSAS CITY CENTER
FSS: WICHITA FLIGHT SERVICE STATION
Attendance: UNATNDD
Wind indicator: yes
Segmented circle: no

Airport Communications

WX ASOS at LWC (14 nm SW): 121.225 (785-749-1309)
WX ASOS at MCI (16 nm NE): PHONE 816-329-2808
WX ASOS at MKC (17 nm E): PHONE 816-329-2843
WX ASOS at IXD (17 nm S): 135.325 (913-780-6987)
WX ASOS at OJC (19 nm SE): PHONE 913-780-6969

Nearby radio navigation aids

VOR radial/distance  VOR name  Freq  Var
MCIr219/14.5KANSAS CITY VORTAC113.2505E
TOPr088/27.6TOPEKA VORTAC117.8005E
ANXr264/38.5NAPOLEON VORTAC114.0007E

Airport Services

Airframe service: NONE
Powerplant service: NONE

Runway Information

Runway 17/35

Dimensions: 2100 x 60 ft. / 640 x 18 m
Surface: turf
RUNWAY 17  RUNWAY 35
Latitude: 39-06.905435N39-06.560672N
Longitude: 094-57.388208W094-57.350067W
Traffic pattern: leftleft
Obstructions: 30 ft. pline, 200 ft. from runwaynone

Airport Ownership and Management from official FAA records

Ownership: Privately-owned
Owner: ALBERT HOELTING
16247 STATE AVE
BASEHOR, KS 66007
Phone 913-724-2443
Manager: ALBERT HOELTING
16247 STATE AVE
BASEHOR, KS 66007
Phone 913-909-7723

Airport Operational Statistics

Aircraft based on the field: 12
Single engine airplanes: 12
    

Instrument Procedures

There are no published instrument procedures at SN22.

Some nearby airports with instrument procedures:

KLWC - Lawrence Municipal Airport (14 nm SW)
KFLV - Sherman Army Airfield (15 nm N)
KMCI - Kansas City International Airport (16 nm NE)
KMKC - Charles B Wheeler Downtown Airport (17 nm E)
KIXD - New Century AirCenter Airport (17 nm S)
KOJC - Johnson County Executive Airport (19 nm SE)
 
Loc | Ops | Rwys | IFR | FBO | Links
Com | Nav | Svcs | Stats | Notes

Kansas City Aviation Department
 
Area around SN22 (Hoelting Airport)
 
Road maps at: MapQuest Bing Google
 
Aerial photo
WARNING: Photo may not be current or correct
Aerial photo of SN22 (Hoelting Airport)
Photo by John Peters
Taken in June 2010

Do you have a better or more recent aerial photo of Hoelting Airport that you would like to share? If so, please send us your photo.

 
Sectional chart

 
Airport distance calculator
Flying to Hoelting Airport? Find the distance to fly.

From to SN22

Sunrise and sunset
Times for 11-Dec-2017
 Local
(UTC-6)
 Zulu
(UTC)
Morning civil twilight07:0013:00
Sunrise07:3013:30
Sunset16:5622:56
Evening civil twilight17:2623:26

Current date and time
Zulu (UTC)  11-Dec-2017 21:39:38
Local (UTC-6)  11-Dec-2017 15:39:38
 
METAR
KLWC 
13nm SW 
112052Z AUTO 30023G31KT 10SM BKN065 13/M02 A3003 RMK AO2 PK WND 29034/2014 SLP175 T01331022 53014
KMCI 
15nm NE 
112053Z 32020G35KT 10SM SCT060 BKN180 11/M02 A3000 RMK AO2 PK WND 31035/2044 SLP161 T01061022 53015
KMKC 
17nm E 
112054Z 31014G27KT 10SM SCT065 12/M02 A2999 RMK AO2 PK WND 32036/2042 SLP157 T01221022 53016
KIXD 
18nm S 
112053Z 32020G33KT 10SM BKN065 12/M03 A3002 RMK AO2 PK WND 33035/2015 SLP169 T01171033 53008
KOJC 
19nm SE 
112053Z 33019G32KT 10SM BKN065 12/M03 A3000 RMK AO2 PK WND 30036/2005 SLP161 T01221028 53007
TAF
KMCI 
15nm NE 
111725Z 1118/1218 32023G33KT P6SM SCT150 FM112200 32022G30KT P6SM BKN040 FM120400 34014G24KT P6SM FEW250 FM120800 35010KT P6SM SKC
KMKC 
17nm E 
111725Z 1118/1218 31022G32KT P6SM SCT150 FM112200 32019G29KT P6SM BKN040 FM120400 34012G20KT P6SM FEW250 FM120800 35009KT P6SM SKC
KIXD 
18nm S 
111725Z 1118/1218 31023G32KT P6SM SCT150 FM112300 32022G30KT P6SM BKN040 FM120400 34014G24KT P6SM FEW250 FM120700 35010KT P6SM SKC
NOTAMs
Click for the latest NOTAMs
NOTAMs are issued by the DoD/FAA and will open in a separate window not controlled by AirNav.

 

 
 

Would you like to see your business listed on this page?

 If your business provides an interesting product or service to pilots, flight crews, aircraft, or users of the Hoelting Airport, you should consider listing it here.  To start the listing process, click on the button below
 
Add a business
 

Other Pages about Hoelting Airport

Update a link
 
Copyright © AirNav, LLC. All rights reserved. Privacy Policy  Contact